Date,TemperatureHighF,TemperatureAvgF,TemperatureLowF,DewpointHighF,DewpointAvgF,DewpointLowF,HumidityHigh,HumidityAvg,HumidityLow,PressureMaxIn,PressureMinIn,WindSpeedMaxMPH,WindSpeedAvgMPH,GustSpeedMaxMPH,PrecipitationSumIn
2013-1-1,34.2,32.1,27.8,33.0,29.6,23.0,97,90,79,30.16,30.05,3,0,6,0.02
2013-1-2,33.8,27.0,20.7,23.0,20.8,17.0,94,78,57,30.27,30.15,3,0,5,0.03
2013-1-3,38.2,28.3,19.2,25.0,20.6,18.0,93,74,50,30.36,30.23,6,1,10,0.03
2013-1-4,39.4,33.2,30.0,27.0,24.2,22.0,79,70,53,30.38,30.31,6,2,13,0.02
2013-1-5,42.1,33.3,24.3,31.0,26.6,22.0,92,77,57,30.40,30.19,5,1,8,0.06
2013-1-6,40.3,35.1,29.2,34.0,29.0,23.0,83,78,74,30.38,30.05,7,2,9,0.01
2013-1-7,42.9,31.2,23.3,28.0,25.1,22.0,95,79,55,30.50,30.27,3,0,7,0.01
2013-1-8,53.7,37.0,24.2,35.0,29.5,22.0,94,76,48,30.36,30.24,5,1,9,0.00
2013-1-9,56.6,45.3,34.9,47.0,38.8,31.0,95,79,54,30.51,30.24,5,1,8,0.02
2013-1-10,45.2,38.2,29.3,42.0,35.0,28.0,96,88,71,30.53,30.12,1,0,3,0.11
2013-1-11,63.4,54.9,45.4,56.0,50.5,43.0,97,86,66,30.11,29.91,7,1,11,0.43
2013-1-12,65.0,60.4,52.6,62.0,58.5,51.0,97,93,87,30.02,29.80,3,1,9,0.00
2013-1-13,65.8,55.3,37.2,62.0,53.7,36.0,98,94,81,30.12,29.73,5,1,14,0.40
2013-1-14,36.9,28.7,25.3,35.0,24.9,22.0,94,85,78,30.46,30.12,5,1,7,0.40
2013-1-15,32.4,29.3,24.8,28.0,25.0,22.0,90,83,77,30.40,30.10,4,1,6,0.00
2013-1-16,36.3,32.8,30.3,31.0,29.6,29.0,93,88,76,30.12,30.01,3,1,7,0.02
2013-1-17,44.0,34.7,29.8,33.0,28.4,22.0,92,78,57,30.40,30.13,5,1,7,0.02
2013-1-18,40.6,30.7,21.1,26.0,21.7,19.0,93,71,47,30.56,30.28,5,1,9,0.00
2013-1-19,55.3,45.1,34.6,31.0,27.1,25.0,69,51,34,30.27,29.95,9,4,17,0.00
2013-1-20,47.4,36.6,28.7,36.0,19.0,10.0,70,50,34,30.24,29.95,7,2,13,0.00
2013-1-21,28.7,23.7,15.3,20.0,11.4,2.0,85,60,46,30.28,30.13,9,1,12,0.00
2013-1-22,21.8,14.8,8.7,5.0,0.7,-1.0,69,54,38,30.44,30.28,4,1,8,0.00
2013-1-23,23.1,19.3,14.5,11.0,5.5,1.0,66,55,48,30.41,30.14,5,1,8,0.00
2013-1-24,25.4,20.8,16.1,13.0,6.5,2.0,68,55,36,30.62,30.13,13,1,13,0.00
2013-1-25,27.2,23.4,20.7,22.0,15.6,7.0,88,73,53,30.47,30.09,3,1,5,0.00
2013-1-26,35.2,26.4,21.1,22.0,19.8,17.0,92,77,55,30.47,30.17,4,0,7,0.01
2013-1-27,38.7,30.0,20.1,36.0,23.9,17.0,95,79,60,30.47,30.20,2,0,5,0.18
2013-1-28,52.4,47.6,37.9,52.0,46.0,37.0,97,94,83,30.20,30.05,6,2,11,0.02
2013-1-29,66.4,59.2,51.5,59.0,54.8,50.0,97,86,72,30.06,29.59,8,2,17,0.02
2013-1-30,69.0,53.3,33.9,61.0,46.8,-99.9,97,83,72,29.59,29.27,9,-18,17,0.07
2013-1-31,33.6,28.4,18.6,26.0,20.0,14.0,92,71,55,30.06,29.59,10,3,20,0.07
2013-2-1,20.5,14.3,9.2,16.0,6.2,2.0,89,71,59,30.46,30.07,7,2,10,0.00
2013-2-2,31.5,24.0,13.5,28.0,20.3,8.0,92,85,77,30.38,30.04,6,1,8,0.00
2013-2-3,29.3,24.2,20.2,25.0,19.2,16.0,87,81,74,30.16,29.96,7,1,8,0.00
2013-2-4,35.4,27.2,17.2,35.0,24.5,15.0,97,89,74,30.16,29.86,6,1,8,0.01
2013-2-5,37.8,34.5,29.4,35.0,31.6,27.0,97,89,82,30.02,29.86,3,0,5,0.05
2013-2-6,37.7,34.6,29.6,33.0,29.7,27.0,90,82,73,30.28,30.03,3,0,5,0.06
2013-2-7,62.9,44.5,31.4,40.0,33.9,28.0,92,70,39,30.22,29.82,3,0,7,0.00
2013-2-8,50.8,38.5,32.5,46.0,32.8,24.0,94,80,58,30.33,29.80,7,2,13,0.06
2013-2-9,44.7,32.8,22.8,25.0,21.5,19.0,90,65,38,30.45,30.25,3,0,5,0.00
2013-2-10,56.0,43.4,31.6,45.0,31.1,22.0,88,64,37,30.25,29.81,7,1,13,0.01
2013-2-11,53.6,48.7,40.3,51.0,36.6,28.0,94,65,44,30.05,29.78,9,3,18,0.01
2013-2-12,50.4,40.1,29.7,29.0,27.1,24.0,87,62,37,30.14,29.91,6,1,9,0.00
2013-2-13,35.5,32.7,30.7,32.0,29.6,27.0,95,88,73,29.92,29.78,2,0,4,0.05
2013-2-14,53.6,40.6,30.1,40.0,32.1,-99.9,95,76,51,30.01,29.85,6,-10,13,0.01
2013-2-15,42.1,35.1,28.1,32.0,28.8,23.0,90,78,60,30.16,30.00,6,1,11,0.01
2013-2-16,30.5,25.4,20.6,23.0,17.6,11.0,94,73,51,30.16,30.06,5,1,10,0.00
2013-2-17,33.7,24.0,15.0,16.0,10.9,6.0,90,61,32,30.28,30.14,5,1,8,0.00
2013-2-18,59.8,42.2,24.0,41.0,25.0,9.0,80,52,37,30.25,29.77,7,2,18,0.02
2013-2-19,46.6,34.2,25.9,42.0,25.0,-99.9,94,74,60,30.13,29.67,9,-18,17,0.14
2013-2-20,31.4,25.2,21.4,17.0,14.3,12.0,78,64,49,30.33,30.14,5,1,9,0.00
2013-2-21,33.3,27.1,21.1,27.0,19.5,14.0,87,73,63,30.39,30.08,2,0,7,0.00
2013-2-22,44.5,36.8,30.4,41.0,34.6,27.0,97,92,84,30.09,29.91,4,0,9,0.14
2013-2-23,46.8,38.0,33.5,35.0,29.4,26.0,96,73,46,30.01,29.91,4,0,6,0.00
2013-2-24,45.2,34.0,27.7,27.0,24.7,23.0,85,70,47,30.17,29.95,5,1,6,0.00
2013-2-25,48.1,35.9,24.8,29.0,24.4,22.0,90,65,44,30.19,29.91,3,0,6,0.00
2013-2-26,50.2,43.0,36.6,49.0,38.5,25.0,96,85,58,29.91,29.36,5,1,12,0.14
2013-2-27,41.9,37.9,34.5,40.0,34.9,31.0,94,89,77,29.74,29.53,8,3,14,0.15
2013-2-28,37.2,34.8,32.9,34.0,29.4,-99.9,94,87,84,29.96,29.71,5,-9,9,0.01
2013-3-1,36.4,34.6,31.2,35.0,32.5,26.0,97,92,81,30.05,29.94,3,0,5,0.08
2013-3-2,31.0,28.8,27.1,26.0,23.4,21.0,90,80,74,30.11,30.03,6,1,8,0.00
2013-3-3,32.4,28.8,23.8,26.0,22.4,19.0,88,77,68,30.12,30.06,5,1,6,0.00
2013-3-4,44.7,32.0,18.5,28.0,22.2,17.0,94,70,42,30.20,30.02,2,0,6,0.00
2013-3-5,39.8,37.2,31.0,38.0,32.6,26.0,96,84,62,30.03,29.58,5,0,10,0.26
2013-3-6,33.0,31.0,28.9,31.0,29.3,27.0,97,93,90,30.28,29.66,4,1,7,0.01
2013-3-7,37.0,33.7,31.5,33.0,30.8,29.0,95,89,82,30.40,30.27,3,0,4,0.10
2013-3-8,45.7,35.1,26.3,29.0,26.9,25.0,93,74,45,30.49,30.39,4,0,5,0.01
2013-3-9,59.5,44.5,29.4,37.0,31.7,27.0,91,64,40,30.40,30.05,3,0,6,0.00
2013-3-10,70.3,59.4,51.1,45.0,35.3,33.0,59,42,27,30.05,29.82,8,1,11,0.01
2013-3-11,57.2,48.1,39.0,53.0,44.8,33.0,97,88,63,29.86,29.59,8,2,13,1.13
2013-3-12,45.8,39.0,35.4,33.0,30.1,28.0,87,71,53,30.07,29.86,6,2,10,0.00
2013-3-13,35.6,31.4,27.9,33.0,25.3,20.0,94,78,62,30.34,30.02,6,2,13,0.00
2013-3-14,45.7,32.9,23.4,24.0,20.5,16.0,90,65,31,30.38,30.19,4,1,9,0.00
2013-3-15,54.2,42.1,31.2,40.0,33.5,23.0,90,73,56,30.19,29.79,4,1,8,0.00
2013-3-16,62.2,48.7,38.8,53.0,43.4,34.0,96,82,63,30.01,29.62,7,2,13,0.20
2013-3-17,38.8,36.1,34.3,34.0,32.1,29.0,95,85,78,30.15,30.00,2,0,5,0.10
2013-3-18,49.9,41.7,34.8,49.0,40.0,34.0,98,94,76,30.00,29.63,7,1,10,1.03
2013-3-19,46.7,38.8,30.1,35.0,23.6,14.0,88,58,29,30.12,29.84,11,3,20,0.00
2013-3-20,40.4,33.9,26.2,22.0,18.0,13.0,76,53,39,30.12,29.95,7,2,12,0.00
2013-3-21,33.8,27.1,22.1,16.0,12.8,9.0,72,56,41,30.07,29.96,6,1,9,0.00
2013-3-22,46.0,32.9,21.5,21.0,17.9,16.0,87,57,32,30.11,30.00,4,0,7,0.00
2013-3-23,52.6,41.2,31.3,26.0,23.4,20.0,74,52,30,30.08,29.88,3,1,7,0.00
2013-3-24,40.0,35.7,32.8,34.0,29.9,24.0,97,81,55,29.88,29.41,4,0,7,0.01
2013-3-25,34.6,33.2,30.8,34.0,31.8,30.0,97,94,91,29.95,29.43,5,1,7,0.03
2013-3-26,40.6,35.7,32.7,34.0,30.5,27.0,94,82,65,30.25,29.96,4,1,7,0.10
2013-3-27,43.6,37.5,30.6,30.0,27.4,25.0,86,68,52,30.33,30.24,6,1,8,0.00
2013-3-28,51.9,39.6,27.8,29.0,25.7,23.0,85,60,38,30.38,30.29,6,1,8,0.00
2013-3-29,57.0,42.6,29.0,33.0,29.3,26.0,92,63,35,30.34,30.20,4,0,7,0.00
2013-3-30,61.6,48.1,32.8,37.0,32.8,29.0,89,59,31,30.25,29.94,4,1,9,0.00
2013-3-31,57.3,50.0,45.7,49.0,43.5,37.0,96,80,57,29.93,29.77,5,0,12,0.03
2013-4-1,51.4,43.8,36.4,42.0,28.8,19.0,89,58,34,30.12,29.78,4,1,12,0.00
2013-4-2,48.5,37.6,26.3,24.0,19.0,16.0,82,50,28,30.27,30.12,5,1,8,0.00
2013-4-3,49.2,37.7,26.2,21.0,17.7,12.0,77,48,25,30.43,30.27,5,1,7,0.00
2013-4-4,55.2,44.6,33.6,28.0,21.5,16.0,58,42,24,30.34,30.00,2,0,7,0.00
2013-4-5,63.5,48.8,31.4,36.0,29.9,26.0,85,52,27,30.13,29.98,5,1,9,0.00
2013-4-6,68.9,53.0,38.0,39.0,30.1,22.0,66,44,27,30.20,29.91,5,1,9,0.00
2013-4-7,73.6,64.7,57.7,57.0,46.2,36.0,93,53,40,29.97,29.86,8,3,17,0.11
2013-4-8,72.8,63.4,54.0,57.0,53.9,50.0,96,73,51,29.98,29.86,9,2,17,0.12
2013-4-9,81.7,70.1,54.6,60.0,56.2,51.0,90,64,41,30.02,29.89,8,2,14,0.00
2013-4-10,84.4,74.5,65.5,65.0,60.5,58.0,80,63,46,29.93,29.73,9,2,15,0.00
2013-4-11,71.2,63.8,58.6,64.0,59.7,56.0,97,87,65,29.77,29.51,3,0,7,0.26
2013-4-12,58.5,47.9,41.7,58.0,39.9,33.0,98,75,57,29.92,29.49,10,2,13,0.01
2013-4-13,60.2,47.9,37.2,38.0,34.8,32.0,89,64,37,30.03,29.92,7,1,15,0.01
2013-4-14,73.1,55.8,38.6,46.0,40.9,36.0,91,61,33,30.06,29.86,5,0,6,0.01
2013-4-15,69.7,62.0,55.0,56.0,52.0,45.0,80,70,56,29.97,29.88,4,1,7,0.01
2013-4-16,82.7,65.6,56.1,66.0,59.1,53.0,97,81,55,30.13,29.93,8,1,11,0.00
2013-4-17,79.4,66.1,57.4,66.0,61.3,57.0,99,86,59,30.16,29.93,5,0,8,0.01
2013-4-18,84.1,73.6,62.8,64.0,58.6,53.0,86,62,41,29.91,29.57,13,3,18,0.01
2013-4-19,73.5,50.2,40.2,61.0,41.7,31.0,95,74,53,29.99,29.40,8,2,15,0.00
2013-4-20,53.1,43.7,37.0,35.0,31.0,26.0,89,63,38,30.39,29.99,5,1,11,0.00
2013-4-21,59.2,46.0,33.9,34.0,31.0,28.0,81,59,34,30.52,30.35,3,0,5,0.00
2013-4-22,72.2,54.3,36.3,44.0,37.7,32.0,87,57,30,30.36,30.11,3,0,6,0.00
2013-4-23,70.9,59.1,44.2,53.0,48.0,42.0,91,68,52,30.12,29.86,5,1,8,0.00
2013-4-24,64.8,52.5,39.3,57.0,46.0,37.0,96,80,61,30.21,29.76,4,1,11,0.00
2013-4-25,59.6,46.8,34.3,39.0,35.9,32.0,97,70,40,30.37,30.22,6,1,10,0.00
2013-4-26,63.9,50.0,34.4,40.0,34.1,28.0,96,59,29,30.46,30.32,3,0,4,0.00
2013-4-27,63.8,54.8,42.1,52.0,43.9,38.0,89,68,40,30.34,30.04,3,0,4,0.00
2013-4-28,69.0,59.4,55.1,61.0,56.2,52.0,97,89,70,30.03,29.80,4,0,7,0.00
2013-4-29,63.6,58.5,54.8,57.0,55.2,53.0,97,89,77,29.98,29.86,2,0,4,0.00
2013-4-30,79.4,63.4,46.6,59.0,53.4,46.0,98,74,41,30.03,29.94,3,0,5,0.00
2013-5-1,83.2,68.6,53.4,61.0,56.3,52.0,96,68,40,30.14,30.02,0,0,0,0.00
2013-5-2,75.0,67.7,59.6,58.0,54.9,52.0,79,64,53,30.17,30.05,0,0,0,0.00
2013-5-3,77.2,67.9,61.1,59.0,53.7,41.0,81,62,37,30.05,29.91,0,0,0,0.00
2013-5-4,73.1,64.8,59.1,53.0,47.5,42.0,78,54,42,29.97,29.87,0,0,0,0.00
2013-5-5,58.7,54.7,51.4,54.0,51.5,48.0,98,89,71,29.95,29.88,0,0,0,0.00
2013-5-6,62.0,57.4,53.0,58.0,55.6,53.0,98,94,86,29.93,29.86,0,0,0,0.00
2013-5-7,70.8,60.9,54.5,61.0,57.8,54.0,98,90,64,29.95,29.88,0,0,0,0.01
2013-5-8,76.6,62.5,53.7,61.0,57.9,53.0,99,87,51,29.98,29.89,2,0,5,0.01
2013-5-9,78.0,66.0,55.0,63.0,58.1,54.0,99,78,44,30.00,29.91,0,0,0,0.01
2013-5-10,68.5,64.1,61.8,63.0,61.2,59.0,98,91,75,29.91,29.78,4,0,12,0.00
2013-5-11,62.0,54.3,47.5,62.0,50.9,42.0,98,88,73,29.98,29.81,4,1,9,0.00
2013-5-12,56.5,48.6,41.0,43.0,36.7,31.0,95,67,39,30.11,29.99,6,1,10,0.01
2013-5-13,61.7,51.5,39.4,40.0,35.8,31.0,94,59,32,30.17,30.09,4,1,8,0.01
2013-5-14,81.1,62.5,45.8,60.0,47.8,38.0,81,61,42,30.13,29.80,7,1,11,0.02
2013-5-15,87.2,76.6,65.9,62.0,58.7,54.0,78,56,36,29.86,29.76,8,2,14,0.01
2013-5-16,74.5,67.9,64.0,68.0,61.3,55.0,97,80,58,29.94,29.80,2,0,6,0.06
2013-5-17,78.7,66.7,59.7,68.0,63.9,59.0,99,91,67,30.02,29.94,4,0,7,0.00
2013-5-18,76.5,67.7,64.0,70.0,65.8,63.0,98,93,73,30.01,29.92,2,0,2,0.00
2013-5-19,82.7,72.1,64.7,70.0,66.5,64.0,99,84,57,29.97,29.84,0,0,3,0.00
2013-5-20,84.7,75.4,67.6,72.0,69.2,67.0,96,82,62,29.96,29.84,3,0,7,0.03
2013-5-21,84.5,74.8,67.7,69.0,66.7,64.0,90,77,52,29.90,29.75,6,1,9,0.00
2013-5-22,78.4,69.7,63.7,67.0,64.0,62.0,97,83,60,29.81,29.69,3,0,8,0.09
2013-5-23,69.4,63.9,54.3,64.0,58.5,48.0,98,83,64,30.03,29.75,0,0,7,0.09
2013-5-24,64.4,55.8,49.3,48.0,43.4,39.0,85,65,41,30.29,30.03,3,0,6,0.00
2013-5-25,64.1,55.2,44.8,50.0,44.0,39.0,91,68,44,30.36,30.19,0,0,0,0.00
2013-5-26,69.6,61.8,55.1,52.0,48.9,44.0,86,64,46,30.28,30.14,0,0,2,0.00
2013-5-27,83.6,68.7,54.1,61.0,55.0,46.0,95,64,40,30.16,29.91,3,0,7,0.07
2013-5-28,82.4,75.4,66.7,67.0,62.2,59.0,86,65,50,29.98,29.88,4,0,11,0.00
2013-5-29,86.0,77.0,68.6,67.0,62.8,60.0,77,63,45,30.04,29.93,5,0,8,0.00
2013-5-30,85.9,77.4,68.5,70.0,66.7,64.0,84,71,57,30.09,29.95,5,0,6,0.00
2013-5-31,81.7,72.8,67.5,70.0,66.9,64.0,97,82,64,30.01,29.89,7,1,13,0.01
2013-6-1,80.7,73.1,68.2,71.0,68.4,66.0,97,85,68,29.92,29.73,7,1,13,0.69
2013-6-2,77.4,70.7,66.0,68.0,62.7,60.0,94,77,56,29.87,29.77,3,1,6,0.69
2013-6-3,69.5,63.4,57.2,61.0,54.7,51.0,86,74,59,30.01,29.86,4,1,5,0.00
2013-6-4,74.2,63.1,51.7,54.0,49.3,41.0,93,65,33,30.11,30.01,1,0,4,0.00
2013-6-5,79.5,67.8,56.2,66.0,58.5,51.0,89,73,56,30.04,29.81,1,0,4,0.00
2013-6-6,72.1,67.5,63.2,68.0,65.6,62.0,97,93,81,29.82,29.72,2,0,3,0.62
2013-6-7,74.6,64.9,59.2,62.0,60.1,58.0,96,85,63,29.84,29.75,2,0,3,0.01
2013-6-8,76.2,67.4,58.3,65.0,60.3,56.0,92,79,65,29.98,29.84,3,0,3,0.00
2013-6-9,78.7,71.3,63.6,68.0,64.7,62.0,94,80,61,30.02,29.86,3,0,3,0.00
2013-6-10,75.4,69.3,64.9,68.0,65.4,63.0,98,87,71,29.86,29.74,4,1,7,0.01
2013-6-11,66.6,65.9,64.5,64.0,63.6,63.0,93,92,91,29.87,29.82,2,0,4,0.01
2013-6-13,73.8,71.2,71.3,69.0,60.1,-99.9,91,77,71,29.96,29.73,0,-17,0,0.00
2013-6-14,73.0,72.1,71.1,63.0,62.6,61.0,73,72,70,30.08,29.96,0,0,0,0.00
2013-6-27,80.4,78.2,75.8,71.0,71.0,71.0,85,79,73,29.69,29.67,0,0,2,0.03
2013-6-28,87.3,76.6,66.6,72.0,66.7,60.0,96,74,41,29.67,29.55,7,1,15,0.21
2013-6-29,76.6,69.5,64.1,70.0,66.4,63.0,97,90,70,29.64,29.55,5,0,7,0.14
2013-6-30,82.4,70.8,64.3,68.0,65.9,63.0,97,86,58,29.80,29.63,4,0,9,0.32
2013-7-1,79.9,68.2,64.4,71.0,63.3,-99.9,96,88,71,29.90,29.78,3,-21,9,0.59
2013-7-2,83.4,72.6,65.6,71.0,67.4,65.0,98,85,60,29.99,29.88,4,0,8,0.01
2013-7-3,81.0,75.2,69.4,71.0,69.2,68.0,95,82,68,30.09,29.99,6,1,8,0.00
2013-7-4,73.7,70.4,68.3,71.0,68.6,67.0,98,94,87,30.13,30.05,2,0,4,1.25
2013-7-5,76.8,70.9,66.5,72.0,68.9,66.0,98,93,83,30.13,30.06,7,1,9,0.15
2013-7-6,77.9,71.4,68.3,74.0,70.1,67.0,98,95,85,30.11,30.03,9,0,9,1.92
2013-7-7,84.4,73.6,66.3,71.0,68.0,66.0,98,84,58,30.10,30.00,5,0,8,0.00
2013-7-8,88.5,77.2,66.8,73.0,70.0,66.0,97,80,55,30.11,30.01,5,1,11,0.00
2013-7-9,91.2,81.0,75.8,79.0,74.6,72.0,93,81,59,30.05,29.94,7,1,14,0.05
2013-7-10,90.6,78.9,69.4,80.0,74.3,68.0,95,86,66,29.96,29.79,9,1,16,0.21
2013-7-11,83.3,73.1,67.3,70.0,66.7,59.0,98,81,58,29.99,29.90,2,0,6,0.00
2013-7-12,81.9,71.9,61.4,64.0,59.6,57.0,88,67,46,30.07,29.99,3,0,8,0.00
2013-7-13,85.5,75.7,66.9,70.0,65.7,61.0,85,72,54,30.10,30.03,4,0,7,0.00
2013-7-14,89.8,79.6,70.5,76.0,71.6,67.0,94,77,60,30.18,30.09,7,1,11,0.05
2013-7-15,92.9,81.8,72.3,74.0,72.6,67.0,96,76,43,30.26,30.18,4,0,6,0.00
2013-7-16,94.9,83.5,72.5,76.0,72.9,70.0,95,72,47,30.30,30.21,3,0,5,0.00
2013-7-17,94.2,82.3,74.2,79.0,75.6,73.0,95,81,54,30.28,30.14,3,0,6,0.06
2013-7-18,95.3,84.7,74.9,78.0,73.9,69.0,97,73,45,30.16,29.98,5,0,10,0.00
2013-7-19,90.0,81.6,75.0,79.0,75.6,72.0,95,82,63,30.01,29.86,5,0,12,0.27
2013-7-20,90.6,79.6,72.4,75.0,72.7,67.0,92,80,57,29.89,29.80,9,1,20,0.05
2013-7-21,88.4,78.1,70.2,75.0,71.1,68.0,95,80,59,29.93,29.84,2,0,6,0.14
2013-7-22,79.2,73.0,69.9,74.0,71.4,69.0,97,95,81,29.88,29.74,2,0,4,0.61
2013-7-23,88.8,76.4,69.8,76.0,71.9,68.0,98,87,63,29.81,29.70,9,1,12,0.04
2013-7-24,79.5,69.5,60.6,68.0,61.6,57.0,90,77,54,29.97,29.79,4,0,8,0.00
2013-7-25,79.9,69.3,59.0,61.0,57.4,53.0,87,68,42,30.06,29.98,3,0,7,0.00
2013-7-26,80.5,70.3,58.5,66.0,60.7,57.0,96,74,47,30.07,29.95,5,1,7,0.00
2013-7-27,75.2,69.3,64.8,69.0,64.8,59.0,97,86,70,29.95,29.82,5,0,14,0.39
2013-7-28,75.3,66.2,55.7,59.0,53.3,50.0,91,65,44,30.04,29.89,7,1,14,0.01
2013-7-29,80.6,68.1,56.5,60.0,57.2,54.0,95,71,44,30.16,30.04,6,0,9,0.00
2013-7-30,80.6,69.9,58.6,67.0,62.3,57.0,97,78,51,30.21,30.09,2,0,5,0.00
2013-7-31,76.6,70.9,65.2,69.0,66.5,64.0,96,86,76,30.09,29.92,2,0,7,0.04
2013-8-1,84.2,74.9,69.1,69.0,64.4,56.0,95,72,44,29.97,29.89,6,1,12,0.00
2013-8-2,85.7,73.3,61.2,68.0,62.6,59.0,95,72,47,29.99,29.93,7,1,14,0.00
2013-8-3,81.3,74.0,69.3,71.0,67.5,63.0,96,81,62,30.00,29.93,2,0,8,0.08
2013-8-4,80.1,70.0,62.2,64.0,54.7,-99.9,80,62,45,30.10,30.00,5,-20,9,0.00
2013-8-5,81.2,68.3,58.1,62.0,58.9,57.0,96,74,46,30.10,29.95,4,0,6,0.00
2013-8-6,81.5,73.8,66.1,71.0,65.1,60.0,88,74,63,29.96,29.89,5,1,6,0.00
2013-8-7,84.5,76.9,69.4,75.0,72.2,68.0,96,86,72,29.92,29.84,3,0,7,0.00
2013-8-8,86.0,74.7,71.1,76.0,70.0,-99.9,96,88,70,29.93,29.86,2,-14,7,0.82
2013-8-9,83.8,75.4,69.7,75.0,71.5,69.0,98,88,70,30.00,29.88,5,0,10,0.80
2013-8-10,86.8,76.9,70.1,73.0,70.6,66.0,96,82,54,30.08,30.00,4,0,6,0.00
2013-8-11,89.1,78.6,71.3,74.0,69.8,64.0,96,76,52,30.06,29.99,7,0,8,0.00
2013-8-12,85.8,75.7,66.1,73.0,69.2,65.0,96,81,57,30.05,29.84,5,1,8,0.00
2013-8-13,79.6,73.9,64.0,73.0,64.4,51.0,90,73,54,30.03,29.82,5,1,10,0.00
2013-8-14,73.4,63.6,55.5,53.0,51.3,49.0,85,66,43,30.15,30.03,1,0,5,0.00
2013-8-15,75.3,64.1,52.8,58.0,54.9,51.0,94,74,50,30.16,30.06,3,0,6,0.00
2013-8-16,79.4,68.5,56.3,60.0,57.3,54.0,93,70,46,30.13,30.08,3,0,8,0.00
2013-8-17,85.3,71.3,59.9,65.0,60.7,56.0,88,70,46,30.16,30.08,3,0,7,0.00
2013-8-18,82.2,72.3,62.1,67.0,64.1,60.0,95,77,50,30.15,30.06,5,0,7,0.00
2013-8-19,85.0,73.8,64.2,70.0,64.2,61.0,97,75,46,30.11,30.03,3,0,5,0.00
2013-8-20,86.9,75.0,63.6,72.0,65.6,62.0,96,75,50,30.14,30.06,4,0,7,0.00
2013-8-21,84.6,76.0,67.7,74.0,69.4,66.0,94,81,58,30.13,30.03,3,0,7,0.02
2013-8-22,89.4,76.9,68.1,73.0,69.6,66.0,94,80,49,30.09,30.00,7,0,9,0.02
2013-8-23,86.9,75.0,67.8,71.0,68.0,66.0,97,80,52,30.11,30.01,3,0,5,0.08
2013-8-24,87.1,75.0,62.9,69.0,63.1,59.0,90,68,43,30.23,30.12,4,0,7,0.00
2013-8-25,88.6,74.5,61.6,66.0,61.7,56.0,96,68,35,30.31,30.19,3,0,5,0.00
2013-8-26,90.3,77.1,64.7,73.0,67.2,63.0,95,74,45,30.23,30.04,8,0,9,0.00
2013-8-27,91.3,81.0,71.6,76.0,73.0,70.0,94,77,59,30.05,29.92,6,1,10,0.00
2013-8-28,95.8,83.2,76.1,78.0,74.1,72.0,92,76,46,29.94,29.82,7,1,14,0.25
2013-8-29,86.7,78.7,72.4,75.0,71.6,70.0,92,79,61,30.00,29.92,4,0,7,0.25
2013-8-30,91.2,78.6,67.9,73.0,69.3,67.0,97,76,48,29.96,29.82,6,0,10,0.00
2013-8-31,89.8,76.3,68.9,77.0,71.7,66.0,96,86,62,29.88,29.70,17,1,21,0.51
2013-9-1,86.8,75.6,67.9,74.0,70.3,67.0,96,84,61,29.82,29.73,4,0,8,0.52
2013-9-2,89.0,78.6,71.6,74.0,69.8,61.0,95,76,53,29.85,29.75,5,1,12,0.00
2013-9-3,75.8,68.7,61.0,61.0,58.0,55.0,86,70,51,30.04,29.85,5,0,8,0.00
2013-9-4,83.3,69.0,56.4,63.0,59.5,55.0,96,74,43,30.13,30.04,6,0,8,0.00
2013-9-5,87.2,73.3,60.3,66.0,61.7,55.0,96,71,41,30.16,30.09,4,0,6,0.00
2013-9-6,81.9,69.1,56.9,59.0,53.2,45.0,83,59,31,30.22,30.08,2,0,6,0.00
2013-9-7,87.3,72.3,57.2,68.0,62.3,56.0,95,73,48,30.09,29.93,6,0,12,0.00
2013-9-8,91.3,78.7,68.3,72.0,68.8,66.0,94,74,46,29.96,29.89,2,0,6,0.00
2013-9-9,92.0,80.0,69.0,73.0,69.8,67.0,95,73,46,30.01,29.93,4,1,10,0.00
2013-9-10,94.1,83.0,74.6,77.0,73.3,71.0,89,73,55,30.10,29.99,6,1,9,0.00
2013-9-11,91.4,80.7,72.0,75.0,72.1,70.0,93,76,55,30.13,29.99,7,0,10,0.00
2013-9-12,79.8,75.8,70.2,73.0,70.4,66.0,94,83,65,29.98,29.84,8,1,9,0.08
2013-9-13,69.9,62.0,55.1,64.0,50.5,45.0,84,67,49,30.08,29.87,5,1,12,0.09
2013-9-14,72.3,59.1,47.9,51.0,46.6,45.0,90,66,38,30.18,30.08,3,0,6,0.00
2013-9-15,79.3,63.6,48.0,61.0,53.7,47.0,96,73,47,30.15,30.01,8,1,13,0.00
2013-9-16,73.7,64.6,59.9,61.0,57.9,53.0,95,80,56,30.26,30.04,1,0,6,0.01
2013-9-17,76.4,64.2,52.1,59.0,53.9,50.0,92,71,46,30.31,30.14,5,0,9,0.01
2013-9-18,78.5,67.1,59.1,68.0,60.6,54.0,93,81,51,30.15,30.04,4,0,7,0.00
2013-9-19,81.4,71.0,65.2,71.0,67.0,64.0,96,88,64,30.07,29.96,5,0,7,0.11
2013-9-20,87.4,74.2,67.3,71.0,68.7,66.0,96,85,56,29.98,29.77,6,1,15,1.54
2013-9-21,74.3,66.5,60.3,68.0,59.1,50.0,97,79,44,29.86,29.67,6,1,9,0.03
2013-9-22,70.5,60.1,51.4,52.0,48.8,46.0,89,68,44,30.01,29.86,3,0,8,0.03
2013-9-23,71.1,58.6,48.1,51.0,49.0,46.0,92,72,47,30.11,30.01,4,0,8,0.00
2013-9-24,76.6,60.5,47.2,60.0,52.8,45.0,94,77,55,30.09,29.90,4,0,5,0.00
2013-9-25,75.0,63.4,55.9,59.0,54.8,53.0,91,75,49,29.92,29.86,3,0,5,0.00
2013-9-26,79.6,64.1,50.0,62.0,56.2,49.0,96,78,52,30.05,29.91,2,0,7,0.00
2013-9-27,81.0,65.5,52.1,60.0,54.1,50.0,96,71,36,30.16,30.05,3,0,5,0.00
2013-9-28,80.0,65.8,52.6,62.0,56.8,51.0,96,75,47,30.18,30.04,3,0,6,0.00
2013-9-29,70.8,63.2,57.4,62.0,59.7,56.0,96,89,72,30.05,29.99,7,0,10,0.02
2013-9-30,74.2,66.6,61.5,64.0,62.0,60.0,95,85,70,30.02,29.94,4,0,6,0.01
2013-10-1,78.7,68.4,58.2,66.0,62.3,57.0,97,82,61,30.08,29.99,5,0,9,0.01
2013-10-2,79.4,68.5,60.3,71.0,65.2,59.0,97,89,73,30.10,30.01,2,0,5,0.00
2013-10-3,80.9,72.2,68.2,72.0,68.5,67.0,97,89,66,30.07,29.98,3,0,8,0.19
2013-10-4,85.2,73.5,64.2,71.0,67.2,63.0,97,82,59,30.07,29.99,5,1,9,0.19
2013-10-5,80.5,71.8,68.2,72.0,68.7,66.0,96,90,72,30.04,29.93,4,0,10,1.25
2013-10-6,73.3,64.7,54.6,70.0,63.4,53.0,97,95,88,29.94,29.69,5,1,14,1.00
2013-10-7,63.5,54.3,48.1,54.0,47.4,45.0,96,79,52,30.16,29.83,5,1,15,1.00
2013-10-8,69.8,55.2,44.2,53.0,47.3,43.0,97,78,43,30.29,30.16,2,0,7,0.01
2013-10-9,74.8,59.1,47.2,54.0,48.9,45.0,95,73,38,30.24,30.14,5,0,6,0.00
2013-10-10,74.9,58.7,44.0,53.0,48.0,43.0,96,72,36,30.19,30.06,3,0,4,0.00
2013-10-11,79.6,62.4,48.7,57.0,52.9,48.0,96,75,42,30.11,30.00,3,0,5,0.00
2013-10-12,79.6,64.2,52.1,62.0,57.2,51.0,96,80,48,30.11,30.02,4,0,5,0.00
2013-10-13,74.6,64.1,55.3,63.0,56.2,43.0,97,78,49,30.28,30.11,2,0,7,0.01
2013-10-14,73.7,60.7,49.0,55.0,48.3,43.0,84,65,41,30.32,30.16,2,0,5,0.01
2013-10-15,74.2,63.5,53.2,65.0,59.0,52.0,96,86,70,30.18,29.93,3,0,9,0.00
2013-10-16,67.1,63.0,53.5,63.0,59.0,49.0,96,87,75,29.95,29.88,4,0,8,0.03
2013-10-17,55.1,50.4,44.5,51.0,47.3,43.0,96,89,76,29.99,29.88,4,0,12,0.10
2013-10-18,65.6,53.1,42.5,51.0,46.0,42.0,96,79,49,30.06,29.95,11,1,13,0.10
2013-10-19,52.1,47.8,42.9,48.0,44.8,40.0,95,89,79,30.02,29.83,9,1,9,0.19
2013-10-20,62.8,50.0,38.6,45.0,41.8,37.0,95,75,49,30.07,30.00,8,1,14,0.19
2013-10-21,66.5,54.5,41.9,50.0,43.8,40.0,93,70,42,30.04,29.90,11,1,14,0.00
2013-10-22,53.2,45.9,35.2,49.0,35.5,27.0,93,70,37,30.06,29.86,3,0,9,0.14
2013-10-23,46.3,43.1,37.8,42.0,37.5,31.0,95,81,57,30.05,29.74,7,1,12,0.01
2013-10-24,45.6,40.8,37.2,37.0,34.7,32.0,91,79,60,30.29,30.06,7,1,12,0.01
2013-10-25,50.4,40.5,32.3,34.0,30.2,27.0,86,69,42,30.46,30.29,7,1,12,0.01
2013-10-26,54.5,43.3,32.6,41.0,33.3,28.0,86,69,53,30.31,29.96,7,1,17,0.00
2013-10-27,60.4,47.3,36.8,42.0,37.6,35.0,95,72,41,30.12,30.05,3,0,8,0.00
2013-10-28,65.2,47.7,33.5,43.0,37.3,32.0,96,72,35,30.30,30.10,4,0,7,0.00
2013-10-29,57.2,48.3,36.9,50.0,42.6,35.0,94,81,68,30.36,30.22,1,0,2,0.01
2013-10-30,63.3,57.7,52.2,62.0,56.5,50.0,97,96,90,30.21,30.00,1,0,4,0.15
2013-10-31,65.6,63.0,60.2,64.0,60.2,58.0,96,90,82,30.00,29.36,7,2,23,0.62
2013-11-1,64.8,57.6,50.6,56.0,49.3,45.0,96,75,51,29.75,29.43,11,2,19,0.69
2013-11-2,56.8,51.4,44.8,45.0,40.9,37.0,81,68,51,30.09,29.74,4,1,13,0.00
2013-11-3,55.7,46.7,40.7,43.0,39.2,37.0,92,76,54,30.38,30.09,4,0,6,0.00
2013-11-4,59.7,49.1,39.5,46.0,40.0,34.0,88,72,56,30.42,30.31,4,0,8,0.00
2013-11-5,62.1,54.9,50.2,48.0,44.5,41.0,88,69,53,30.41,30.22,5,0,8,0.00
2013-11-6,67.5,57.2,46.4,60.0,50.2,40.0,95,78,61,30.21,29.97,12,1,17,0.33
2013-11-7,49.7,44.6,40.1,44.0,34.6,28.0,94,70,44,30.26,30.03,8,1,12,0.37
2013-11-8,53.3,41.8,31.7,35.0,31.6,29.0,93,70,40,30.40,30.23,5,1,14,0.00
2013-11-9,62.8,49.6,37.3,39.0,34.1,29.0,85,58,37,30.27,30.04,8,2,22,0.00
2013-11-10,52.6,47.1,35.0,42.0,33.2,27.0,86,60,42,30.36,30.11,6,1,21,0.00
2013-11-11,59.8,44.6,31.0,44.0,33.9,26.0,95,71,30,30.33,30.09,7,1,12,0.05
2013-11-12,37.5,31.4,27.4,35.0,24.5,20.0,94,77,53,30.65,30.26,9,2,15,0.02
2013-11-13,42.6,32.4,23.9,25.0,21.9,18.0,91,68,38,30.67,30.43,6,1,11,0.02
2013-11-14,55.8,41.5,29.2,26.0,22.3,17.0,77,51,22,30.43,30.18,7,1,16,0.00
2013-11-15,55.1,45.8,37.5,45.0,31.9,22.0,91,60,39,30.20,30.11,4,0,9,0.02
2013-11-16,60.7,53.8,47.7,56.0,50.4,44.0,93,88,83,30.16,29.92,5,1,8,0.02
2013-11-17,64.2,60.0,53.4,63.0,56.5,42.0,96,89,63,29.93,29.51,17,2,17,0.71
2013-11-18,54.6,47.8,39.7,42.0,29.6,-99.9,70,54,45,30.19,29.80,7,-29,20,0.00
2013-11-19,42.1,36.9,32.6,30.0,29.0,28.0,84,73,62,30.37,30.19,5,0,8,0.00
2013-11-20,51.4,39.7,29.4,34.0,30.3,26.0,89,71,50,30.36,30.25,7,1,10,0.00
2013-11-21,55.1,48.6,39.8,48.0,40.5,34.0,94,74,61,30.34,30.21,4,0,8,0.04
2013-11-22,54.2,49.0,39.5,53.0,45.9,32.0,97,89,73,30.37,30.17,8,1,13,0.16
2013-11-23,40.6,33.4,23.8,33.0,23.6,12.0,90,69,39,30.59,30.36,8,2,14,0.00
2013-11-24,28.4,23.2,18.5,17.0,11.5,8.0,84,62,50,30.73,30.57,5,0,9,0.00
2013-11-25,41.1,31.2,19.7,31.0,19.2,15.0,89,63,42,30.58,30.23,6,1,17,0.00
2013-11-26,34.3,33.3,32.3,33.0,31.5,29.0,96,93,84,30.24,29.95,4,0,7,0.02
2013-11-27,34.1,29.1,24.5,30.0,21.1,15.0,87,72,63,30.33,29.94,9,2,18,0.03
2013-11-28,35.8,27.6,20.5,23.0,18.0,15.0,86,68,51,30.48,30.33,5,1,13,0.01
2013-11-29,40.7,29.6,19.8,26.0,22.6,18.0,94,77,52,30.67,30.49,3,0,5,0.03
2013-11-30,52.1,37.3,25.6,32.0,27.7,22.0,90,70,44,30.55,30.20,8,0,11,0.00
2013-12-1,53.3,45.6,36.9,39.0,34.6,30.0,76,66,56,30.20,29.97,7,1,10,0.00
2013-12-2,52.7,46.3,39.8,41.0,38.8,36.0,88,76,63,29.97,29.79,1,0,5,0.01
2013-12-3,53.4,45.2,35.0,47.0,42.2,34.0,96,90,80,29.89,29.80,5,0,8,0.01
2013-12-4,63.2,55.0,46.6,58.0,52.0,44.0,95,90,83,29.88,29.72,4,1,8,0.01
2013-12-5,62.7,49.3,33.4,61.0,46.3,31.0,96,89,78,30.17,29.76,7,1,12,0.11
2013-12-6,33.6,29.8,27.4,31.0,28.3,26.0,96,94,90,30.41,30.14,4,1,8,0.27
2013-12-7,27.9,25.0,20.3,26.0,22.0,17.0,94,88,80,30.63,30.41,5,1,6,0.00
2013-12-8,32.2,26.0,20.3,31.0,23.8,17.0,96,91,86,30.57,30.05,3,0,6,0.00
2013-12-9,33.4,31.0,27.0,33.0,28.1,22.0,97,89,81,30.26,30.04,9,1,15,0.00
2013-12-10,30.2,25.2,21.8,22.0,19.5,17.0,93,80,66,30.40,30.19,9,2,19,0.00
2013-12-11,36.1,25.6,15.7,26.0,19.5,13.0,94,78,65,30.55,30.32,11,2,16,0.01
2013-12-12,26.2,19.7,11.5,14.0,9.5,3.0,81,66,42,30.60,30.39,9,2,12,0.00
2013-12-13,40.1,30.0,18.2,31.0,20.2,14.0,87,69,50,30.40,30.18,9,1,12,0.02
2013-12-14,39.8,36.1,33.4,39.0,34.4,31.0,97,93,86,30.18,29.73,4,1,12,0.07
2013-12-15,33.7,30.2,28.9,31.0,25.3,23.0,92,82,71,30.16,29.90,9,2,16,0.07
2013-12-16,36.0,32.2,28.6,33.0,30.0,24.0,95,92,81,30.15,30.03,5,0,8,0.01
2013-12-17,35.6,32.7,30.5,34.0,28.7,26.0,95,85,77,30.20,30.01,7,1,19,0.02
2013-12-18,38.7,32.1,26.1,27.0,21.9,19.0,88,67,45,30.31,30.09,6,1,12,0.00
2013-12-19,56.1,47.8,34.9,42.0,33.0,22.0,67,57,51,30.12,29.97,8,2,16,0.00
2013-12-20,59.9,55.0,50.8,57.0,47.1,36.0,92,76,52,29.98,29.83,7,2,12,0.01
2013-12-21,66.8,60.7,56.8,64.0,59.0,55.0,97,94,88,29.83,29.45,8,2,22,0.65
2013-12-22,61.9,53.4,41.1,61.0,49.9,38.0,96,88,76,30.04,29.57,8,2,18,1.00
2013-12-23,41.0,33.5,26.6,37.0,26.7,19.0,89,76,65,30.42,30.04,7,1,12,0.00
2013-12-24,27.3,20.8,15.6,23.0,13.6,10.0,87,74,60,30.59,30.40,5,1,12,0.00
2013-12-25,36.1,28.4,18.2,24.0,17.5,14.0,87,65,45,30.54,30.23,5,1,8,0.00
2013-12-26,41.4,35.7,32.4,28.0,24.8,22.0,79,65,48,30.39,30.22,8,2,14,0.00
2013-12-27,49.1,38.8,29.4,32.0,28.7,25.0,86,68,50,30.44,30.31,7,1,10,0.00
2013-12-28,53.4,43.3,33.7,34.0,31.1,28.0,82,63,47,30.31,30.04,4,1,10,0.00
2013-12-29,44.3,40.2,34.0,41.0,36.4,29.0,96,87,58,30.04,29.82,10,1,16,0.30
2013-12-30,33.8,29.0,24.9,32.0,22.3,17.0,91,76,67,30.27,30.04,5,1,11,0.01
2013-12-31,35.2,29.1,24.7,22.0,18.9,16.0,76,66,52,30.42,30.22,8,1,17,0.00
2014-1-1,47.9,35.7,24.0,31.0,26.2,22.0,93,70,46,30.32,30.03,5,1,10,0.00
2014-1-2,37.0,25.9,12.6,32.0,23.2,9.0,95,90,75,30.31,29.84,7,1,9,0.03